This is the latest recevied weather packets stored in our database for station/object W9WRP. If no packets are shown the sender has not sent any weather packets the latest 10 day(s).
| Time | Temp. | Humidity | Pressure | Rain* | Wind** | Luminosity | Snow |
|---|---|---|---|---|---|---|---|
| 1787702785 | 45° C | 13% | 1012.1 hPa | 0 mm | - | 191 W/m² | - |
| 1787702481 | 45° C | 13% | 1012.2 hPa | 0 mm | - | 205 W/m² | - |
| 1787702180 | 44.44° C | 13% | 1012.1 hPa | 0 mm | - | 219 W/m² | - |
| 1787701870 | 45° C | 13% | 1011.8 hPa | 0 mm | - | 73 W/m² | - |
| 1787701566 | 45° C | 13% | 1012.2 hPa | 0 mm | - | 251 W/m² | - |
| 1787701261 | 45° C | 13% | 1011.9 hPa | 0 mm | - | 156 W/m² | - |
| 1787700957 | 44.44° C | 13% | 1012 hPa | 0 mm | - | 115 W/m² | - |
| 1787700652 | 44.44° C | 13% | 1012.1 hPa | 0 mm | - | 204 W/m² | - |
| 1787700349 | 45° C | 13% | 1012.2 hPa | 0 mm | - | 207 W/m² | - |
| 1787700044 | 44.44° C | 13% | 1012.3 hPa | 0 mm | - | 255 W/m² | - |
| 1787699740 | 44.44° C | 13% | 1012.3 hPa | 0 mm | - | 103 W/m² | - |
| 1787699435 | 45° C | 13% | 1012.4 hPa | 0 mm | - | 361 W/m² | - |
| 1787699131 | 45.56° C | 13% | 1012.6 hPa | 0 mm | - | 269 W/m² | - |
| 1787698826 | 46.11° C | 12% | 1012.3 hPa | 0 mm | - | 212 W/m² | - |
| 1787698522 | 45.56° C | 13% | 1012.3 hPa | 0 mm | - | 106 W/m² | - |
| 1787698218 | 45° C | 13% | 1012.5 hPa | 0 mm | - | 219 W/m² | - |
| 1787697913 | 45° C | 13% | 1012.4 hPa | 0 mm | - | 404 W/m² | - |
| 1787697608 | 43.89° C | 14% | 1012.6 hPa | 0 mm | - | 447 W/m² | - |
| 1787697303 | 45° C | 13% | 1012.3 hPa | 0 mm | - | 262 W/m² | - |
| 1787696998 | 45.56° C | 13% | 1012.4 hPa | 0 mm | - | 363 W/m² | - |
| 1787696694 | 45° C | 13% | 1012.4 hPa | 0 mm | - | 467 W/m² | - |
| 1787696390 | 45° C | 13% | 1012.8 hPa | 0 mm | - | 371 W/m² | - |
| 1787696085 | 45° C | 13% | 1013.1 hPa | 0 mm | - | 512 W/m² | - |
| 1787695784 | 45.56° C | 13% | 1012.9 hPa | 0 mm | - | 525 W/m² | - |
| 1787695480 | 45.56° C | 12% | 1013.1 hPa | 0 mm | - | 378 W/m² | - |
* Rain latest hour (hover to see other rain measurements)
** Current wind speed in m/s (hover to see current wind gust speed)